Terminal Aerodrome Forecast
Issued by NWS Key West, FL

Home | Current Version | Previous Version | Text Only | Print | Product List | Glossary On
Versions: 1 2 3 4 5 6 7 8 9 10 11 12 13 14 15 16
000
FTUS42 KKEY 140533
TAFEYW
TAF
KEYW 140533Z 1406/1506 VRB01KT P6SM SKC
     FM141500 07005KT P6SM SKC=

USA.gov is the U.S. government's official web portal to all federal, state and local government web resources and services.